www.pogodaiklimat.ru
ПОГОДА на Агалега
Время
(UTC), дата
12 13.10
15 13.10
18 13.10
00 14.10
03 14.10
06 14.10
09 14.10
12 14.10
15 14.10
18 14.10
00 15.10
03 15.10
06 15.10
09 15.10
12 15.10
15 15.10
18 15.10
21 15.10
00 16.10
03 16.10
06 16.10
09 16.10
12 16.10
15 16.10
18 16.10
00 17.10
03 17.10
06 17.10
09 17.10
12 17.10
15 17.10
18 17.10
00 18.10
03 18.10
06 18.10
09 18.10
12 18.10
15 18.10
18 18.10
00 19.10
03 19.10
06 19.10
09 19.10
12 19.10
15 19.10
18 19.10
00 20.10
03 20.10
06 20.10
09 20.10
Ветер
(напр.,м/с)
Видим. Явления Облачность Т
(С)
Тd
(С)
f
(%)
Тe
(С)
Тes
(С)
Комфортность P
(гПа)
Po
(гПа)
Тmin
(С)
Tmax
(С)
R
(мм)
R24
(мм)
S
(см)
В 6 20 км осадки на расстоянии {гроза, ливн. осадки} 10/6 500 м
[Cu Sc Ac lent Cs]
+28.5 +25.0 81 +41 +42 опасность
перегрева
1010.5 1010.2 2
ЮВ 6 18 км осадки на расстоянии 9/4 500 м
[Cu Sc Ac lent Cs]
+27.0 +24.1 84 +37 +37 очень
душно
1012.0 1011.7
ЮВ 5 18 км осадки на расстоянии 10/10 500 м
[Cu Sc]
+27.0 +23.4 81 +37 +37 очень
душно
1013.8 1013.5 +30.3 2
ЮВ 6 15 км осадки на расстоянии 8/6 500 м
[Cu Sc Ci sp]
+26.5 +23.5 84 +36 +36 очень
душно
1011.3 1011.0
ЮВ 5 18 км осадки на расстоянии 8/8 500 м
[Cu Sc Ci sp]
+27.0 +24.4 86 +38 +38 очень
душно
1012.4 1012.1
В 6 25 км 6/6 540 м
[Cu Sc]
+29.5 +24.6 75 +42 +44 опасность
перегрева
1013.4 1013.1 +25.8 2
ЮВ 6 25 км 8/8
[Cb cap Ci ing]
+31.1 +25.4 72 +45 +47 опасность
перегрева
1011.9 1011.6
ЮВ 6 25 км 5/4
[Cb cap Ci ing]
+29.5 +24.1 73 +41 +43 опасность
перегрева
1010.5 1010.2
ЮВ 5 20 км 9/9 540 м
[Cu Sc Ci sp]
+27.1 +23.8 82 +37 +37 очень
душно
1012.0 1011.7
ЮВ 5 12 км гроза, ливневой дождь 10/10 450 м
[Cb cap]
+25.8 +24.7 94 +37 +37 очень
душно
1013.5 1013.2 +31.9 0.5
В 4 15 км в посл. час ливневой дождь {гроза} 10/10 480 м
[Cb cap]
+25.2 +24.3 95 +35 +35 очень
душно
1011.3 1011.0 16
В 3 15 км слаб. дождь 10/8 480 м
[Cb cap Ac As Ci sp]
+25.0 +24.4 96 +35 +35 очень
душно
1012.4 1012.1 4
ЮВ 5 12 км слаб. дождь {гроза} 10/8 480 м
[Cb cap Ac As]
+25.8 +24.8 94 +37 +37 очень
душно
1013.1 1012.8 +24.4 24
ЮВ 3 10 км слаб. ливневой дождь 10/8 450 м
[Cb cap Ac As]
+26.8 +25.7 94 +40 +41 очень
душно
1012.1 1011.8 1
В 4 18 км осадки на расстоянии {ливн. осадки} 9/6 480 м
[Cb cap Ac As Ci sp]
+27.7 +25.0 85 +40 +41 очень
душно
1010.8 1010.5 2
ЮВ 3 18 км осадки на расстоянии 10/5
[Cb cap Ac As Cs]
+26.5 +24.4 88 +37 +37 очень
душно
1012.4 1012.1
ЮВ 3 18 км осадки на расстоянии 9/6 500 м
[Cu Sc Ac lent Cs]
+26.4 +24.5 89 +37 +37 очень
душно
1013.5 1013.2 +29.2 2
штиль 0 <100 м ясно +19.4 0.0 27 +19 +19 тепло 1000.0 1000.0
ЮВ 3 15 км осадки на расстоянии {гроза, ливн. осадки} 9/9 420 м
[Cb cap]
+25.0 +24.3 96 +35 +35 очень
душно
1010.9 1010.6 11
ЮВ 6 25 км 8/8 540 м
[Cu Sc Ci sp]
+26.0 +24.0 89 +36 +36 очень
душно
1011.9 1011.6
ЮВ 5 18 км осадки на расстоянии 6/6 480 м
[Cb calv Ac lent Ci sp]
+28.7 +24.1 76 +40 +43 очень
душно
1013.0 1012.7 +24.7 13
ЮВ 5 15 км в посл. час ливневой дождь 8/8 450 м
[Cb calv Ci sp]
+26.4 +25.3 94 +38 +41 очень
душно
1011.4 1011.1 0.6
В 4 15 км осадки на расстоянии {ливн. осадки} 8/8 450 м
[Cb calv Ci sp]
+26.8 +24.4 87 +38 +39 очень
душно
1010.0 1009.7 2
ЮВ 4 18 км осадки на расстоянии 6/6 450 м
[Cb calv Ac lent]
+26.3 +24.2 88 +37 +37 очень
душно
1011.8 1011.5
ЮВ 4 18 км в посл. час ливневой дождь 5/5 480 м
[Cu Sc Ci sp]
+25.5 +23.3 88 +34 +34 очень
душно
1013.5 1013.2 +30.6 2
ЮВ 5 18 км осадки на расстоянии {ливн. осадки} 6/5 500 м
[Cu Sc Ci sp]
+25.7 +22.5 83 +34 +34 очень
душно
1011.2 1010.9 0.3
ЮВ 4 20 км осадки на расстоянии 6/6 500 м
[Cu Sc Ac lent Ci sp]
+26.9 +23.0 79 +36 +36 очень
душно
1012.5 1012.2
ЮВ 5 18 км осадки на расстоянии 9/9 480 м
[Cb calv Ac lent]
+28.6 +22.8 71 +38 +39 очень
душно
1013.6 1013.3 +25.0 3
ЮВ 4 20 км осадки на расстоянии {ливн. осадки} 8/8 500 м
[Cu Sc Ac lent]
+29.5 +23.0 68 +39 +42 очень
душно
1011.8 1011.5 0.2
ЮВ 4 20 км в посл. час ливневой дождь 9/9 500 м
[Cu Sc Ac lent]
+26.1 +23.6 86 +35 +36 очень
душно
1010.8 1010.5 1
ЮВ 2 18 км осадки на расстоянии 9/9 500 м
[Cu Sc Ac lent]
+25.9 +22.2 80 +34 +34 очень
душно
1012.6 1012.3
Ю 3 20 км 6/6 540 м
[Cu Sc Ac lent]
+25.5 +21.6 79 +33 +33 очень
душно
1014.3 1014.0 +31.0 1
ЮВ 3 20 км 3/3 540 м
[Cu med, cong]
+25.0 +21.3 80 +32 +32 очень
душно
1011.5 1011.2
ЮВ 3 25 км 3/3 570 м
[Cu med, cong Ci fib]
+25.8 +21.7 78 +33 +34 очень
душно
1012.9 1012.6
ЮВ 4 25 км 4/4 500 м
[Cu Sc Ci fib]
+28.5 +22.4 70 +37 +44 очень
душно
1013.8 1013.5 +24.8 0.9
ЮВ 4 25 км 3/3 570 м
[Cu med, cong Ci sp]
+30.3 +22.6 63 +40 +49 очень
душно
1012.2 1011.9
ЮВ 5 25 км 5/5 570 м
[Cu med, cong Ci sp]
+28.5 +22.9 72 +38 +40 очень
душно
1011.1 1010.8
В 5 15 км осадки на расстоянии 9/8 500 м
[Cu Sc Ci sp]
+26.5 +23.6 84 +36 +36 очень
душно
1012.7 1012.4
ЮВ 3 18 км осадки на расстоянии 8/8 500 м
[Cu Sc Ci sp]
+26.4 +23.8 86 +35 +35 очень
душно
1013.5 1013.2 +31.4
ЮВ 2 18 км осадки на расстоянии 6/5 500 м
[Cu Sc Ci sp]
+26.4 +22.9 81 +34 +34 очень
душно
1010.9 1010.6
В 4 15 км в посл. час ливневой дождь 9/9 500 м
[Cu Sc Ac lent Ci sp]
+25.1 +24.4 96 +35 +35 очень
душно
1012.6 1012.3 2
ЮВ 3 20 км в посл. час ливневой дождь 8/8 500 м
[Cu Sc Ac lent Ci sp]
+27.3 +24.6 85 +37 +39 очень
душно
1013.4 1013.1 +24.9 3
ЮВ 6 20 км в посл. час ливневой дождь 8/6 500 м
[Cu Sc Ac lent Ci sp]
+27.5 +25.1 87 +40 +43 очень
душно
1011.7 1011.4 1
ЮВ 5 20 км осадки на расстоянии {ливн. осадки} 8/8 500 м
[Cu Sc Ac lent Ci sp]
+28.5 +24.3 78 +40 +41 очень
душно
1010.7 1010.4 1
ЮВ 4 18 км осадки на расстоянии 6/5 500 м
[Cu Sc Ac lent Ci sp]
+26.6 +23.3 82 +36 +36 очень
душно
1012.2 1011.9
ЮВ 3 20 км 4/4 540 м
[Cu Sc Ci sp]
+26.5 +23.5 84 +36 +36 очень
душно
1013.6 1013.3 +30.0 1
ЮВ 5 18 км осадки на расстоянии 8/8 500 м
[Cu Sc Ci sp]
+26.0 +23.0 84 +35 +35 очень
душно
1011.4 1011.1
ЮВ 5 18 км осадки на расстоянии 9/9 450 м
[Cb cap Ac lent Ci sp]
+26.5 +23.6 84 +36 +36 очень
душно
1013.1 1012.8
ЮВ 4 18 км осадки на расстоянии 10/9 450 м
[Cb cap Ac lent]
+28.0 +24.3 80 +39 +39 очень
душно
1013.3 1013.0 +25.3 1
ЮВ 5 18 км осадки на расстоянии 9/4 450 м
[Cb cap Ac lent Cs]
+29.9 +25.1 75 +43 +47 опасность
перегрева
1011.7 1011.4
Местоположение метеостанции Агалега (Маврикий): широта -10.43 долгота 56.75 высота над уровнем моря 3 м.
В архиве по умолчанию представлена погода на Агалега за последнюю неделю. Архивные данные за месяц целиком и за предыдущие месяцы, начиная с января 2011 года, Вы можете получить, выбрав интересующий диапазон дат из раскрывающегося списка и нажав кнопку "Найти!".
*Определитесь, кто Вы:
Внимание! Время в таблицах - всемирное. Для получения местного времени необходимо прибавить поправку, которая равна 4 ч.
Смотрите также архив погоды в соседних городах и на ближайших метеорологических станциях:
Партнеры нашего сайта:      
Пояснения к столбцам:
  • Ветер - указаны скорость ветра в м/с - средняя за 10 мин, порывы в срок и между сроками (в фигурных скобках) и направление, откуда дует ветер: С - северный,
  • СВ - северо-восточный, В - восточный, ЮВ - юго-восточный, Ю - южный, ЮЗ - юго-западный, З - западный, СЗ - северо-западный.
  • Видимость - горизонтальная дальность видимости в метрах или километрах. При видимости от 1 до 10 км при отсутствии осадков обычно наблюдается дымка, при ухудшении видимости до 1 км и менее - туман. В сухую погоду видимость может ухудшаться дымом, пылью или мглою.
  • Явления - указаны атмосферные явления, наблюдавшиеся в срок или в последний час перед сроком; фигурными скобками обозначены явления, наблюдавшиеся между сроками (за 1-3 часа до срока); квадратными скобками обозначены град или гололедные отложения с указанием их диаметра в мм.
  • Облачность - указаны через наклонную черту общая и нижняя облачность в баллах и высота нижней границы облаков в метрах; квадратными скобками обозначены формы облаков: Ci - перистые, Cs - перисто-слоистые, Cc - перисто-кучевые, Ac - высококучевые, As - высокослоистые, Sc - слоисто-кучевые, Ns - слоисто-дождевые, Cu - кучевые, Cb - кучево-дождевые. Подробнее классификацию облаков см. в Атласе облаков (PDF).
  • T - Температура воздуха - температура, измеренная на высоте 2 м над землей.
  • Td - Температура точки росы - температура, при понижении до которой содержащийся в воздухе водяной пар достигнет насыщения.
  • f - Относительная влажность воздуха - влажноcть воздуха, измеренная на высоте 2 м над землей.
  • Te - Эффективная температура - температура, которую ощущает одетый по сезону человек в тени. Характеристика душности погоды. При расчете учитывается влияние влажности воздуха и скорости ветра на теплоощущения человека.
  • Tes - Эффективная температура на солнце - температура, которую ощущает человек, с поправкой на солнечный нагрев. Характеристика знойности погоды. Зависит от высоты солнца над горизонтом, облачности и скорости ветра. Ночью, в пасмурную погоду, а также при ветре 12 м/с и более поправка равна нулю.
  • P - Атмосферное давление - приведенное к уровню моря атмосферное давление.
  • Po - Атмосферное давление - измеренное на уровне метеостанции атмосферное давление.
  • Tmin - Минимальная температура - минимум температуры воздуха на высоте 2 м над землей.
  • Tmax - Максимальная температура - максимум температуры воздуха на высоте 2 м над землей.
  • R - Количество осадков - Количество выпавших осадков за период времени, мм. При наведении курсора мыши на число - период времени, за который выпало указанное количество осадков.
  • R24 - Количество осадков - Количество выпавших осадков за 24 часа, мм.
  • S - Снежный покров - Высота снежного покрова, см. При наведении курсора мыши на число - состояние снежного покрова и степень покрытия местности в баллах.